Wetbulb
73.27 73.20 76.02 76.86 76.19 75.04 74.72 74.24 73.67 73.49 73.47 73.54 73.64 73.64 73.72 73.64 73.62 73.87 73.41 73.25 72.91 72.16 71.85 71.26 71.10 71.24 71.37 71.55 71.81 71.81 70.70 70.50
72.58 73.75 75.08 76.73 76.04 75.09 74.84 74.44 74.02 73.89 73.62 73.74 73.74 73.84 73.87 73.59 73.59 73.47 73.34 72.90 72.44 72.03 71.42 70.85 70.57 70.69 70.83 71.26 71.71 72.10 72.27 72.44
72.57 73.70 74.58 76.23 75.98 75.48 75.11 74.61 74.54 74.26 73.92 73.59 73.64 73.67 73.67 73.57 73.44 73.32 73.12 72.71 72.39 71.83 71.45 71.24 71.29 71.61 72.48 72.82 72.90 73.25 72.77 73.01
72.85 73.12 73.21 74.03 74.62 75.41 75.45 75.13 74.78 74.50 74.08 74.18 74.30 74.30 73.74 73.49 73.42 73.20 73.20 72.84 72.56 72.54 72.14 72.26 72.42 72.90 73.34 73.49 73.64 73.69 73.42 72.93
72.33 73.04 72.28 73.04 72.79 72.98 73.07 74.91 74.75 74.65 74.45 74.37 73.98 73.69 73.78 73.32 73.24 73.30 73.62 73.66 72.99 72.84 73.12 73.39 73.57 74.11 73.98 73.93 73.80 74.05 73.79 74.04
70.96 71.67 72.65 72.80 71.73 72.18 72.40 73.53 74.79 74.79 74.78 74.55 74.07 74.06 73.76 71.54 71.52 72.33 73.18 73.24 73.47 73.64 74.09 74.29 74.55 74.60 74.45 74.49 74.59 74.82 74.81 72.15
69.05 70.24 71.23 71.80 72.11 71.88 73.02 71.84 72.06 72.10 72.12 72.61 72.56 71.92 71.53 70.44 70.33 72.60 73.16 74.08 74.11 74.34 75.12 75.02 74.90 74.80 74.00 72.38 71.86 73.17 71.15 71.08
68.75 70.12 71.01 71.29 71.51 71.13 71.01 71.10 71.75 71.08 70.56 71.82 71.32 70.76 70.26 70.63 69.45 70.35 70.39 70.88 71.45 73.17 72.57 72.63 72.18 71.72 71.28 71.40 71.50 70.85 70.03 69.43
66.92 69.00 70.75 71.13 70.78 70.55 70.07 71.03 70.71 70.46 70.19 70.51 69.81 69.60 68.93 68.43 67.91 67.93 69.15 69.67 69.65 70.64 70.82 71.05 70.84 70.48 70.59 70.74 70.45 70.20 68.92 68.87
65.60 67.14 69.05 70.33 69.99 70.28 68.52 70.15 69.72 69.92 70.24 69.56 68.88 68.88 68.59 67.70 66.87 66.78 67.42 68.18 69.15 70.03 70.05 69.87 69.94 69.80 67.96 68.39 69.59 69.95 69.31 67.84
66.02 65.70 67.90 68.43 68.86 69.04 68.59 68.61 68.84 69.13 68.65 68.27 68.02 68.37 68.82 68.50 67.73 67.06 66.27 66.45 68.18 69.17 69.65 69.19 68.82 67.97 67.35 67.44 68.28 70.14 69.60 68.86
66.36 66.31 67.06 67.00 67.34 67.53 67.97 67.79 65.92 67.06 67.67 66.82 67.09 67.62 68.20 68.73 68.11 67.36 66.40 65.52 65.61 66.23 66.01 65.86 65.05 64.89 65.05 67.07 67.69 68.51 68.96 69.20
66.01 66.06 67.18 68.30 66.68 66.11 67.29 67.10 66.33 66.49 66.39 66.68 66.50 67.05 67.79 68.49 68.30 67.48 67.53 67.31 67.57 66.50 66.76 65.10 65.38 64.50 66.15 65.84 65.70 65.75 65.60 66.48
65.70 65.89 66.13 66.72 67.47 67.46 67.84 68.35 68.35 68.42 68.63 69.03 69.05 68.27 68.27 68.87 69.90 68.48 68.29 68.59 68.67 67.82 65.80 66.85 65.47 65.66 63.40 63.05 64.76 64.11 64.69 65.43
69.52 67.65 67.39 68.19 68.77 68.73 69.36 71.04 70.99 69.24 68.31 68.68 67.97 68.88 70.65 70.55 70.39 69.10 67.75 66.72 66.52 65.43 64.03 63.52 63.58 63.67 62.26 61.45 63.85 64.47 63.31 63.51
69.44 70.01 70.15 70.18 70.55 70.37 70.37 69.99 68.83 67.25 66.80 65.71 66.10 67.26 67.33 67.26 67.69 67.19 67.59 66.89 65.63 64.59 64.00 64.73 62.86 61.62 61.14 60.86 59.50 59.46 59.73 61.23
67.48 67.93 68.54 69.01 69.51 70.13 69.80 69.31 67.73 67.25 65.90 64.90 65.02 65.55 66.14 66.70 66.63 65.58 64.89 64.57 64.94 64.77 64.46 64.22 62.55 60.92 60.81 60.78 58.51 56.25 54.35 56.44
66.35 66.52 66.45 67.08 67.93 69.06 69.08 68.20 67.64 66.94 65.83 63.65 63.17 64.12 64.71 65.07 64.54 64.22 64.26 63.64 62.97 61.56 61.07 60.77 61.61 62.07 60.57 60.63 60.53 60.60 57.39 55.23
65.31 65.70 65.37 65.82 66.45 67.93 68.36 67.28 66.34 65.19 63.47 64.09 62.83 63.19 63.83 64.11 63.56 62.56 60.66 59.92 59.29 59.05 58.06 59.42 58.61 58.91 60.12 58.04 60.66 61.79 59.21 59.85
MSLP
1013.19 1013.45 1013.55 1013.73 1013.96 1014.29 1014.54 1014.82 1015.23 1015.33 1015.42 1015.52 1015.64 1015.87 1016.08 1016.31 1016.48 1016.56 1016.63 1016.69 1016.81 1016.88 1016.91 1016.91 1016.92 1017.01 1017.05 1017.08 1017.06 1017.04 1017.01 1016.99
1013.26 1013.56 1013.71 1013.90 1014.07 1014.42 1014.65 1014.93 1015.10 1015.33 1015.53 1015.71 1015.85 1016.04 1016.24 1016.41 1016.58 1016.66 1016.67 1016.73 1016.86 1017.00 1016.99 1016.93 1017.01 1017.04 1017.07 1017.14 1017.14 1017.04 1016.93 1016.75
1013.44 1013.69 1013.85 1014.15 1014.37 1014.58 1014.61 1014.83 1015.09 1015.22 1015.47 1015.73 1015.91 1016.13 1016.37 1016.49 1016.57 1016.62 1016.61 1016.72 1016.87 1017.04 1017.00 1016.95 1017.02 1016.93 1017.01 1017.03 1017.01 1017.02 1016.96 1016.64
1013.28 1013.75 1013.93 1014.15 1014.43 1014.68 1014.76 1014.91 1015.15 1015.28 1015.49 1015.78 1016.04 1016.18 1016.37 1016.53 1016.67 1016.68 1016.66 1016.79 1016.91 1017.05 1017.03 1016.92 1016.83 1016.79 1016.93 1016.85 1016.78 1016.85 1016.77 1016.65
1013.87 1013.89 1014.04 1014.22 1014.48 1014.81 1015.05 1015.01 1015.25 1015.30 1015.50 1015.64 1016.04 1016.21 1016.40 1016.54 1016.69 1016.72 1016.70 1016.81 1016.79 1016.86 1016.87 1016.71 1016.72 1016.74 1016.81 1016.76 1016.69 1016.55 1016.63 1016.47
1014.01 1014.17 1014.11 1014.24 1014.43 1014.62 1014.89 1015.01 1015.11 1015.34 1015.51 1015.79 1015.90 1016.23 1016.45 1016.64 1016.75 1016.74 1016.71 1016.77 1016.81 1016.80 1016.83 1016.73 1016.71 1016.75 1016.80 1016.62 1016.52 1016.43 1016.27 1016.34
1013.76 1014.03 1014.20 1014.15 1014.29 1014.41 1014.54 1014.93 1015.13 1015.36 1015.57 1015.86 1015.97 1016.11 1016.38 1016.65 1016.81 1016.82 1016.89 1016.89 1016.90 1016.86 1016.85 1016.69 1016.69 1016.71 1016.73 1016.53 1016.37 1016.29 1016.23 1016.19
1012.66 1013.45 1013.70 1014.09 1014.23 1014.34 1014.27 1014.65 1015.02 1015.35 1015.55 1015.67 1016.00 1016.23 1016.47 1016.63 1016.95 1017.00 1016.98 1016.95 1016.84 1016.82 1016.75 1016.65 1016.59 1016.59 1016.53 1016.35 1016.00 1015.86 1015.99 1015.98
1012.70 1013.11 1013.35 1013.70 1014.11 1014.25 1014.34 1014.51 1014.65 1015.07 1015.40 1015.64 1015.93 1016.21 1016.55 1016.67 1016.79 1016.87 1016.82 1016.74 1016.71 1016.61 1016.59 1016.47 1016.37 1016.34 1016.31 1016.05 1015.91 1015.55 1015.85 1015.67
1012.27 1012.65 1012.95 1013.48 1013.65 1013.95 1014.56 1014.58 1014.77 1014.87 1015.12 1015.37 1015.82 1016.13 1016.21 1016.36 1016.56 1016.61 1016.59 1016.56 1016.39 1016.29 1016.25 1016.22 1016.25 1016.25 1016.19 1015.96 1015.62 1015.59 1015.45 1015.45
1011.73 1012.08 1012.69 1013.18 1013.32 1013.45 1014.22 1014.47 1014.69 1014.82 1014.92 1015.27 1015.64 1015.75 1015.85 1016.01 1016.21 1016.40 1016.21 1016.08 1016.03 1015.93 1015.77 1015.77 1015.95 1016.14 1016.08 1015.76 1015.47 1015.16 1015.08 1015.32
1011.24 1011.59 1012.25 1012.92 1013.07 1013.09 1013.77 1014.29 1014.63 1014.71 1014.90 1015.13 1015.27 1015.35 1015.38 1015.39 1015.75 1015.86 1016.08 1016.25 1016.12 1016.00 1015.85 1015.70 1015.87 1015.93 1015.91 1015.56 1015.66 1015.35 1015.13 1015.12
1010.87 1011.25 1011.59 1012.20 1012.83 1012.91 1013.59 1014.05 1014.43 1014.57 1014.54 1014.70 1014.79 1014.91 1014.95 1015.11 1015.21 1015.58 1015.91 1016.27 1016.40 1016.22 1016.11 1016.08 1016.09 1016.18 1016.21 1016.17 1015.97 1015.67 1015.49 1015.25
1009.93 1010.73 1011.29 1011.69 1012.28 1012.76 1013.44 1013.93 1014.38 1014.46 1014.88 1014.88 1014.83 1014.83 1014.90 1015.06 1015.16 1015.63 1015.93 1016.17 1016.19 1016.28 1016.31 1016.20 1016.38 1016.44 1016.74 1016.65 1016.37 1015.97 1015.58 1015.33
1009.73 1010.06 1010.61 1011.11 1011.69 1012.34 1013.23 1013.89 1014.34 1015.02 1015.12 1015.15 1015.08 1015.00 1014.82 1014.93 1015.14 1015.56 1016.06 1016.18 1016.31 1016.66 1016.79 1016.72 1016.63 1016.71 1016.88 1016.75 1016.58 1016.32 1015.75 1015.27
1009.71 1009.89 1010.24 1011.14 1011.54 1012.11 1012.94 1013.89 1014.88 1015.34 1015.94 1015.89 1015.71 1015.67 1015.57 1015.56 1015.67 1016.09 1016.49 1016.81 1016.85 1016.65 1016.96 1016.90 1017.02 1017.37 1016.95 1016.61 1016.57 1016.47 1015.82 1015.42
1010.13 1010.35 1010.60 1010.85 1011.35 1011.86 1012.67 1013.58 1014.27 1015.37 1016.31 1016.15 1016.16 1016.11 1016.01 1015.88 1016.05 1016.36 1016.73 1017.04 1017.02 1017.62 1017.25 1017.16 1017.38 1017.12 1017.17 1017.01 1017.10 1017.19 1016.71 1015.91
1010.63 1010.96 1011.24 1011.35 1011.65 1012.16 1012.68 1013.49 1014.41 1015.37 1016.01 1016.33 1016.34 1016.61 1016.51 1016.52 1016.79 1017.20 1017.05 1017.44 1017.27 1017.60 1017.81 1017.70 1017.32 1017.23 1017.32 1017.21 1017.16 1017.33 1017.19 1016.89
1011.26 1011.33 1011.61 1011.74 1011.94 1012.26 1012.83 1013.55 1014.37 1014.53 1015.61 1016.47 1016.79 1017.03 1017.05 1017.05 1017.16 1017.30 1017.57 1017.54 1017.71 1017.91 1018.05 1017.83 1017.67 1017.68 1017.57 1017.80 1017.44 1017.27 1017.35 1017.27
Wind_Speed
8 6 13 15 15 16 15 14 12 13 13 13 13 12 12 11 11 9 9 8 7 7 6 4 4 4 4 3 3 2 1 2
11 6 10 14 15 16 15 14 14 13 12 12 12 12 11 10 10 9 8 7 6 5 3 1 0 1 1 1 1 1 1 3
13 6 7 12 13 14 15 15 14 13 13 12 12 12 11 10 9 9 8 7 6 4 3 3 4 4 5 5 5 3 3 5
13 8 6 7 11 14 13 14 13 13 12 11 10 10 11 10 9 8 7 7 6 5 5 6 7 7 6 8 8 7 6 7
11 11 7 7 6 6 6 14 13 13 13 12 12 11 10 10 9 8 7 7 8 8 9 9 9 9 8 9 9 10 10 11
11 11 11 10 7 7 6 8 13 14 13 12 11 11 7 4 5 7 7 9 10 10 10 10 10 10 9 10 11 11 12 3
13 14 13 12 12 9 8 6 5 5 4 4 4 5 4 4 4 5 7 10 11 11 11 12 11 11 9 4 3 9 3 4
16 12 15 13 9 9 7 5 4 3 3 3 5 4 3 3 3 2 2 3 3 7 4 6 5 3 5 5 6 5 3 4
13 13 13 12 10 8 3 6 5 5 4 4 4 5 3 3 4 4 3 4 4 3 5 4 4 4 6 7 7 9 3 4
13 14 13 12 11 8 5 4 4 6 5 4 4 4 4 4 4 3 4 4 4 3 4 4 5 5 5 6 7 7 6 5
13 14 11 13 11 9 7 6 5 4 4 4 4 5 6 4 4 4 5 4 4 4 4 4 4 4 5 4 6 6 6 4
12 13 13 13 11 11 9 5 4 4 4 4 4 6 6 7 6 5 4 4 4 3 4 4 3 2 4 4 4 3 4 3
9 12 12 12 10 9 8 6 3 4 4 4 5 4 6 6 6 2 1 2 2 0 1 1 2 3 3 4 3 3 3 4
13 9 11 9 9 8 6 4 4 1 1 2 1 3 5 6 4 4 3 3 4 3 3 2 3 2 2 2 4 3 4 4
9 11 11 9 9 9 6 4 5 5 5 4 3 3 4 3 5 6 4 4 4 4 4 4 4 4 2 1 3 5 5 4
7 10 11 10 8 7 3 4 4 4 4 3 4 6 7 7 8 6 5 4 4 4 4 4 3 5 4 3 2 3 4 4
6 7 7 9 7 6 4 4 5 6 3 4 4 6 6 8 8 7 5 5 6 4 5 4 2 1 1 3 2 0 4 5
7 6 6 6 8 7 10 9 9 9 5 3 5 4 5 7 7 5 7 4 6 4 3 4 4 5 3 2 1 1 2 3
7 6 6 6 7 7 8 9 10 8 7 3 4 3 5 5 7 6 6 6 6 4 5 5 5 4 4 4 2 1 2 3
Wind_Direction
147 151 161 153 148 150 149 146 144 144 146 145 141 137 134 131 127 123 123 121 120 117 115 116 108 105 109 106 110 104 328 336
156 156 156 155 151 154 153 153 153 154 156 155 149 144 140 137 134 135 138 142 141 141 147 162 61 309 336 338 343 43 9 348
160 148 154 158 156 160 161 162 163 162 165 166 160 156 154 155 155 157 165 169 169 177 194 231 261 279 297 299 296 307 322 309
165 156 153 156 169 170 168 170 172 171 171 171 171 167 169 172 174 180 187 191 199 214 229 247 259 266 279 293 300 308 301 295
169 170 165 159 162 164 179 179 182 181 182 178 181 180 179 184 188 199 210 216 219 230 238 244 256 265 272 281 290 298 302 297
178 182 181 176 172 170 174 191 190 193 191 191 189 191 186 182 203 216 223 230 238 245 252 258 264 273 282 281 281 279 281 257
183 191 190 187 188 177 183 191 183 197 187 192 194 190 184 194 211 222 242 250 254 261 266 267 270 280 293 285 273 283 267 277
183 185 190 191 191 187 190 177 183 199 184 195 201 193 191 197 229 237 256 262 264 264 266 273 281 264 254 259 273 264 261 256
179 195 188 187 187 197 198 191 187 187 186 203 200 198 186 208 220 228 232 237 242 233 253 249 258 248 253 258 261 275 273 257
182 194 194 187 186 188 213 198 193 194 196 196 189 203 198 205 219 227 243 241 238 224 231 254 267 277 266 264 256 261 257 253
188 192 187 194 193 179 198 198 207 199 190 186 187 212 210 203 217 223 236 242 250 215 226 234 249 271 278 273 275 244 242 249
190 182 186 194 194 184 190 189 211 194 185 193 203 209 215 210 210 223 246 268 286 291 288 276 293 294 301 327 337 313 303 306
165 186 178 188 189 177 186 187 199 218 200 206 205 206 221 234 224 228 237 343 288 241 337 51 56 60 42 8 339 327 331 316
179 170 173 174 175 169 173 172 203 187 51 348 184 231 223 213 156 95 66 19 28 45 31 30 67 97 64 336 292 275 279 282
147 157 165 167 164 158 159 146 101 76 60 37 29 29 58 55 99 99 82 70 72 67 356 8 61 54 113 277 308 313 281 266
96 125 139 140 162 147 130 137 122 97 85 57 47 66 75 81 76 67 61 51 37 50 65 52 17 344 2 348 35 312 305 293
116 103 118 127 138 130 117 124 123 121 94 85 61 46 49 67 69 78 86 69 52 3 29 19 344 9 360 22 66 106 343 331
113 115 113 118 121 117 115 106 104 114 114 80 67 71 58 74 63 59 70 59 73 56 49 26 25 32 21 335 27 86 329 290
138 120 125 119 115 118 128 127 142 133 127 83 101 95 80 69 77 70 71 68 59 56 41 34 26 24 29 20 340 108 227 258